Notices

What's New in latest Release from April 7th, 2021:

- Updated Glossary, including Speed of Maximum Gust, and Total Hourly Precipitation

- Updated national and regional climate services offices contacts and prices information

- Addition of station inventory lists for 1981-2010, 1971-2000, and 1961-1990 Normals.

If you haven't already, please take our survey and provide feedback about our website: https://eccc.sondage-survey.ca/f/LanguageSelection.aspx?s=442ca660-fcf1-47c0-95a9-59707d6fd709

Hourly Data Report for March 25, 2021

MIRAMICHI RCS
NEW BRUNSWICK
Current Station Operator: ECCC - MSC

47°00'34.000" N
65°27'54.000" W
33.00 m
8100989
71744
ACQ

Download Data

Hourly Data (March 2021)
Hourly Data Report for March 25, 2021
TIME
LST
Temp Definition
°C
Dew Point Definition
°C
Rel Hum Definition
%
Precip. Amount Definition
mm

Wind Dir Definition
10's deg

Wind Spd Definition
km/h
Visibility Definition
km
Stn Press Definition
kPa
Hmdx Definition


Wind Chill Definition


Weather Definition


00:00 6.3 1.7 73 LegendMM 22 12   101.71     LegendNANA
01:00 6.2 1.9 74 LegendMM 22 12   101.68     LegendNANA
02:00 6.0 1.8 75 LegendMM 20 14   101.68     LegendNANA
03:00 5.9 1.9 75 LegendMM 23 7   101.66     LegendNANA
04:00 5.2 1.4 77 LegendMM 21 14   101.63     LegendNANA
05:00 5.1 2.2 82 LegendMM 23 8   101.58     LegendNANA
06:00 5.0 4.0 93 LegendMM 21 14   101.55     LegendNANA
07:00 4.6 3.5 92 LegendMM 23 10   101.57     LegendNANA
08:00 5.5 4.5 93 LegendMM 21 15   101.53     LegendNANA
09:00 5.5 4.1 91 LegendMM 22 19   101.53     LegendNANA
10:00 6.5 5.4 93 LegendMM 22 18   101.44     LegendNANA
11:00 8.0 5.9 86 LegendMM 21 25   101.34     LegendNANA
12:00 8.8 5.6 80 LegendMM 21 26   101.26     LegendNANA
13:00 9.8 6.6 81 LegendMM 21 24   101.20     LegendNANA
14:00 8.4 7.0 91 LegendMM 20 19   101.13     LegendNANA
15:00 9.8 8.3 90 LegendMM 24 11   101.08     LegendNANA
16:00 10.3 8.6 89 LegendMM 26 8   101.01     LegendNANA
17:00 10.1 8.7 91 LegendMM 25 12   100.97     LegendNANA
18:00 8.7 6.2 84 LegendMM 22 11   100.94     LegendNANA
19:00 9.4 5.8 78 LegendMM 19 13   100.83     LegendNANA
20:00 8.9 5.1 77 LegendMM 20 13   100.87     LegendNANA
21:00 8.6 5.8 83 LegendMM 21 20   100.86     LegendNANA
22:00 8.4 6.2 86 LegendMM 21 16   100.84     LegendNANA
23:00 7.8 6.2 90 LegendMM 21 13   100.82     LegendNANA

Notes on Data Quality.

Legend

  • E = Estimated
  • M = Missing
  • NA = Not Available*
  • [empty] = Indicates an unobserved value
Date modified: